Home   Weather   Kuching   Past weeks

Flag for Malaysia Past Weather in Kuching, Malaysia — Yesterday and Last 2 Weeks

77 °F

Partly sunny.

Feels Like: 78 °F
Forecast: 76 / 89 °F
Wind: 3 mph from Southeast

Location: Kuching Airport

Current Time: Oct 28, 2016 at 8:51:27 AM

Latest Report: Oct 28, 2016 at 8:00 AM

Visibility: N/A

Pressure: 29.89 "Hg

Humidity: 94%

Dew Point: 75 °F

Location of KuchingLocation

Past Weather in Kuching — Graph


Kuching Temperature Yesterday

Maximum temperature yesterday: 91 °F (at 2:30 PM)
Minimum temperature yesterday: 75 °F (at 2:00 AM)
Average temperature yesterday: 80 °F

High & Low Weather Summary for the Past Weeks

High95 °F (Oct 13, 1:30 PM)100% (Oct 13, 6:30 PM)29.92 "Hg (Oct 13, 6:30 PM)
Low73 °F (Oct 14, 6:30 AM)53% (Oct 13, 1:00 PM)29.68 "Hg (Oct 13, 3:30 PM)
Average80 °F86%29.79 "Hg
* Reported Oct 13 7:00 AM — Oct 28 7:30 AM, Kuching, Weather by CustomWeather, © 2016

Note: Actual official high and low records may vary slightly from our data, if they occured in-between our weather recording intervals... More about our weather records


Kuching Weather History for the Previous 24 Hours

Scroll right to see more
Time TempWeatherWind HumidityBarometerVisibility
7:30 AM
Fri, Oct 28
75 °FPartly sunny.3 mph94%29.86 "Hg4 mi
7:00 AM75 °FFog.3 mph94%29.86 "Hg2 mi
6:30 AM75 °FBroken clouds.3 mph94%29.86 "HgN/A
6:00 AM75 °FPartly cloudy.5 mph94%29.86 "HgN/A
5:30 AM75 °FPartly cloudy.3 mph94%29.83 "HgN/A
5:00 AM75 °FPartly cloudy.3 mph94%29.83 "HgN/A
4:30 AM73 °FPartly cloudy.3 mph100%29.83 "HgN/A
4:00 AM73 °FPartly cloudy.3 mph100%29.83 "HgN/A
3:30 AM75 °FPartly cloudy.3 mph94%29.83 "HgN/A
3:00 AM75 °FLight rain. Mostly cloudy.3 mph94%29.83 "HgN/A
2:30 AM73 °FLight rain. Mostly cloudy.2 mph100%29.86 "HgN/A
2:00 AM73 °FLight rain. Mostly cloudy.3 mph100%29.86 "HgN/A
1:30 AM75 °FLight rain. Mostly cloudy.3 mph94%29.86 "HgN/A
1:00 AM75 °FLight rain. Mostly cloudy.3 mph94%29.89 "Hg5 mi
12:30 AM75 °FLight rain. Mostly cloudy.1 mph94%29.89 "Hg5 mi
12:00 AM75 °FLight rain. Mostly cloudy.5 mph89%29.89 "Hg5 mi
11:30 PM
Thu, Oct 27
75 °FLight rain. Mostly cloudy.2 mph94%29.92 "Hg5 mi
11:00 PM75 °FLight rain. Mostly cloudy.2 mph94%29.92 "Hg5 mi
10:30 PM75 °FLight rain. Passing clouds.2 mph94%29.92 "Hg3 mi
10:00 PM75 °FThunderstorms. Passing clouds.3 mph94%29.89 "Hg2 mi
9:30 PM75 °FThunderstorms. Passing clouds.3 mph94%29.89 "HgN/A
9:00 PM75 °FThunderstorms. Passing clouds.6 mph94%29.89 "Hg2 mi
8:30 PM75 °FThunderstorms. Passing clouds.5 mph94%29.86 "Hg1 mi
8:00 PM75 °FStrong thunderstorms. Passing clouds.10 mph94%29.86 "Hg1 mi
7:30 PM75 °FThunderstorms. Partly cloudy.20 mph94%29.83 "Hg1 mi
7:00 PM82 °FThunderstorms. Partly cloudy.5 mph79%29.80 "HgN/A
6:30 PM84 °FThunderstorms. Partly cloudy.6 mph70%29.77 "HgN/A
6:00 PM84 °FThunderstorms. Broken clouds.8 mph74%29.77 "HgN/A
5:30 PM86 °FThunderstorms. Broken clouds.7 mph70%29.74 "HgN/A
5:00 PM86 °FSprinkles. Broken clouds.3 mph75%29.74 "HgN/A
4:30 PM84 °FSprinkles. Broken clouds.7 mph79%29.74 "HgN/A
4:00 PM88 °FBroken clouds.7 mph66%29.74 "HgN/A
3:30 PM90 °FBroken clouds.2 mph63%29.74 "HgN/A
3:00 PM90 °FBroken clouds.3 mph63%29.77 "HgN/A
2:30 PM91 °FBroken clouds.3 mph63%29.77 "HgN/A
2:00 PM90 °FBroken clouds.5 mph63%29.80 "HgN/A
1:30 PM90 °FBroken clouds.2 mph63%29.83 "HgN/A
1:00 PM90 °FBroken clouds.3 mph63%29.83 "HgN/A
12:30 PM90 °FBroken clouds.2 mph67%29.86 "HgN/A
12:00 PM88 °FPartly sunny.3 mph70%29.86 "HgN/A
11:30 AM86 °FPartly sunny.5 mph75%29.89 "HgN/A
11:00 AM86 °FPartly sunny.3 mph70%29.89 "HgN/A
10:30 AM84 °FPartly sunny.5 mph74%29.92 "HgN/A
10:00 AM82 °FPartly sunny.6 mph79%29.92 "HgN/A
9:30 AM81 °FPartly sunny.6 mph84%29.92 "HgN/A
9:00 AM79 °FPartly sunny.3 mph89%29.92 "HgN/A
8:30 AM79 °FBroken clouds.3 mph89%29.92 "HgN/A
8:00 AM77 °FBroken clouds.3 mph89%29.92 "HgN/A
Weather by CustomWeather, © 2016

See weather overviewHow to use our weather pages